Flag for Canada

Past Weather in Québec, Quebec, Canada — Yesterday and Last 2 Weeks

Currently: 34 °F. Fog. (Weather station: Quebec Weather Station, Canada). See more current weather

Past Weather in Québec — Graph

°F

Québec Temperature Yesterday

Maximum temperature yesterday: 34 °F (at 2:00 pm)
Minimum temperature yesterday: 27 °F (at 12:00 am)
Average temperature yesterday: 32 °F

High & Low Weather Summary for the Past Weeks

 TemperatureHumidityPressure
High46 °F (Nov 12, 11:00 am)100% (Nov 13, 2:00 am)30.61 "Hg (Nov 13, 2:00 am)
Low10 °F (Nov 24, 11:00 pm)43% (Nov 18, 1:00 pm)29.46 "Hg (Nov 16, 6:00 am)
Average30 °F80%30.08 "Hg
* Reported Nov 12 9:00 am — Nov 27 9:00 am, Québec. Weather by CustomWeather, © 2020

Note: Actual official high and low records may vary slightly from our data, if they occured in-between our weather recording intervals... More about our weather records

Québec Weather History for the Previous 24 Hours

Scroll right to see more
 ConditionsComfort  
Time TempWeatherWind HumidityBarometerVisibility
9:00 am
Fri, Nov 27
34 °FFog.9 mph100%30.03 "Hg1 mi
8:39 am34 °FFog.10 mph100%30.02 "Hg1 mi
8:19 am34 °FFog.10 mph100%30.03 "Hg1 mi
7:37 am34 °FFog.13 mph100%30.02 "Hg1 mi
7:00 am34 °FFog.13 mph100%30.01 "Hg1 mi
6:00 am34 °FFog.9 mph100%30.00 "Hg1 mi
5:00 am34 °FFog.8 mph100%29.99 "Hg1 mi
4:00 am32 °FFog.3 mph100%29.96 "Hg1 mi
3:00 am32 °FFog.No wind100%29.96 "Hg1 mi
2:00 am34 °FDrizzle. Fog.3 mph100%29.96 "Hg1 mi
1:00 am34 °FDrizzle. Fog.3 mph100%29.96 "Hg1 mi
12:42 am34 °FDrizzle. Fog.5 mph100%29.96 "Hg1 mi
11:20 pm
Thu, Nov 26
34 °FDrizzle. Fog.7 mph100%29.96 "Hg1 mi
10:50 pm34 °FDrizzle. Fog.9 mph100%29.96 "Hg3 mi
10:19 pm34 °FDrizzle. Fog.7 mph100%29.96 "Hg1 mi
9:16 pm34 °FDrizzle. Fog.7 mph100%29.98 "Hg1 mi
8:00 pm34 °FDrizzle. Fog.6 mph100%29.99 "Hg1 mi
7:00 pm34 °FDrizzle. Fog.9 mph100%29.99 "Hg1 mi
6:00 pm34 °FDrizzle. Fog.12 mph100%29.98 "Hg3 mi
5:39 pm34 °FDrizzle. Fog.13 mph100%29.98 "Hg1 mi
2:00 pm34 °FDrizzle. Fog.15 mph93%30.02 "Hg6 mi
1:00 pm32 °FDrizzle. Ice fog.18 mph100%30.04 "Hg2 mi
12:00 pm32 °FDrizzle. Ice fog.18 mph100%30.06 "Hg2 mi
11:36 am32 °FDrizzle. Ice fog.22 mph100%30.09 "Hg2 mi
11:00 am32 °FLight rain. Ice fog.24 mph100%30.09 "Hg2 mi
10:00 am32 °FLight rain. Ice fog.22 mph100%30.13 "Hg3 mi
Weather by CustomWeather, © 2020

See weather overview